Date,TemperatureHighF,TemperatureAvgF,TemperatureLowF,DewpointHighF,DewpointAvgF,DewpointLowF,HumidityHigh,HumidityAvg,HumidityLow,PressureMaxIn,PressureMinIn,WindSpeedMaxMPH,WindSpeedAvgMPH,GustSpeedMaxMPH,PrecipitationSumIn
2013-1-1,41,31,25,38,28,23,93,90,84,30.29,30.14,1,0,1,0.02
2013-1-2,54,32,27,43,29,25,93,86,65,30.14,29.98,4,0,4,0.00
2013-1-3,52,33,25,41,28,22,91,82,63,29.98,29.86,4,0,4,0.07
2013-1-4,40,38,35,38,35,32,92,91,88,30.07,29.90,2,0,2,0.13
2013-1-5,41,40,37,40,37,35,93,92,90,29.96,29.82,5,0,5,0.24
2013-1-6,44,42,39,41,39,37,93,92,89,29.90,29.73,9,1,9,0.51
2013-1-7,52,43,39,47,40,37,94,91,84,29.87,29.55,10,1,10,0.63
2013-1-8,49,41,39,47,39,37,94,93,89,29.90,29.38,9,1,9,2.02
2013-1-9,48,44,40,46,39,35,91,84,77,29.67,29.40,13,2,13,0.03
2013-1-10,47,36,27,42,33,24,91,88,79,29.92,29.67,5,0,5,0.17
2013-1-11,54,31,23,36,24,20,91,79,46,30.10,29.92,2,0,2,0.01
2013-1-12,48,29,23,34,22,19,84,76,52,30.22,30.10,3,0,3,0.00
2013-1-13,36,29,23,29,23,18,83,79,73,30.27,30.21,4,0,4,0.00
2013-1-14,35,33,32,31,29,26,89,84,78,30.36,30.23,2,0,2,0.01
2013-1-15,45,36,33,38,32,29,90,86,77,30.48,30.35,2,0,2,0.02
2013-1-16,55,36,28,43,31,24,89,81,57,30.46,30.31,3,0,3,0.00
2013-1-17,55,33,25,42,28,22,91,83,61,30.32,30.06,2,0,2,0.00
2013-1-18,47,34,26,42,30,23,91,88,77,30.12,30.03,4,0,4,0.00
2013-1-19,38,34,31,36,31,28,92,91,89,30.17,30.12,2,0,2,0.00
2013-1-20,39,34,26,37,32,24,93,92,91,30.17,30.05,2,0,2,0.01
2013-1-21,42,34,30,39,32,28,94,92,86,30.05,29.90,2,0,2,0.00
2013-1-22,42,33,26,39,31,24,93,90,86,29.92,29.68,4,0,4,0.00
2013-1-23,44,39,35,42,37,32,93,91,88,29.85,29.56,8,1,8,0.50
2013-1-24,46,41,36,42,38,34,94,91,86,29.95,29.77,3,0,3,0.29
2013-1-25,52,43,37,47,40,35,93,91,83,29.81,29.66,6,0,6,0.06
2013-1-26,41,40,38,39,37,35,93,91,90,29.74,29.62,5,0,5,0.23
2013-1-27,43,40,38,41,38,36,94,92,90,29.77,29.71,6,1,6,0.21
2013-1-28,42,41,39,39,38,36,93,88,79,29.80,29.72,7,1,7,0.10
2013-1-29,45,43,40,42,40,37,93,91,86,30.06,29.80,3,0,3,0.10
2013-1-30,45,44,44,43,42,42,93,93,92,30.13,30.05,5,1,5,0.05
2013-1-31,49,46,44,46,44,42,94,92,91,30.13,30.02,9,1,9,0.11
2013-2-1,56,46,37,50,43,35,94,90,76,30.20,30.09,3,0,3,0.00
2013-2-2,45,38,31,43,36,29,94,92,89,30.18,30.01,2,0,2,0.00
2013-2-3,46,43,40,43,41,38,93,92,91,30.06,29.92,6,1,6,0.13
2013-2-4,52,46,41,46,42,40,93,88,76,29.92,29.60,8,1,9,0.01
2013-2-5,50,46,43,45,42,40,90,86,79,29.64,29.51,13,3,13,0.17
2013-2-6,49,45,43,43,41,39,90,86,75,29.76,29.52,10,2,10,0.11
2013-2-7,65,43,31,50,37,28,88,80,49,29.96,29.51,13,2,15,0.08
2013-2-8,46,39,29,41,35,26,91,85,77,30.07,29.96,2,0,2,0.00
2013-2-9,47,41,34,43,38,30,91,88,82,30.12,30.02,2,0,2,0.02
2013-2-10,54,38,28,42,33,26,93,83,60,30.15,30.08,5,0,5,0.01
2013-2-11,44,42,39,41,39,35,91,89,86,30.10,30.07,7,1,7,0.03
2013-2-12,50,46,42,46,42,40,91,88,81,30.14,29.97,9,2,9,0.04
2013-2-13,52,46,41,44,40,36,87,80,75,30.24,30.00,7,1,7,0.00
2013-2-14,47,44,41,44,41,38,91,90,87,30.34,30.23,2,0,2,0.21
2013-2-15,60,46,41,49,42,38,92,84,64,30.34,29.92,2,0,2,0.01
2013-2-16,53,46,42,45,41,38,92,82,64,29.93,29.83,9,2,9,0.06
2013-2-17,48,42,37,40,36,33,89,81,73,29.99,29.87,4,0,4,0.04
2013-2-18,47,40,38,42,37,34,90,86,75,29.87,29.53,6,0,6,0.02
2013-2-19,53,42,32,43,35,28,87,78,65,29.75,29.52,4,1,4,0.00
2013-2-20,42,37,31,39,34,28,90,88,86,29.79,29.75,5,0,5,0.09
2013-2-21,45,41,35,41,38,32,93,90,85,29.78,29.72,9,2,9,0.33
2013-2-22,52,43,40,46,39,34,91,84,62,29.76,29.35,14,4,14,0.57
2013-2-23,52,44,38,40,37,34,87,76,60,30.08,29.60,7,1,7,0.00
2013-2-24,48,44,40,40,38,36,86,78,72,30.10,29.60,17,4,17,0.05
2013-2-25,47,44,40,41,38,34,87,80,72,30.02,29.55,16,3,16,0.20
2013-2-26,47,42,35,39,36,31,89,78,66,30.08,29.90,12,2,12,0.07
2013-2-27,51,43,38,43,38,34,90,83,71,30.07,29.92,8,1,8,0.05
2013-2-28,44,41,37,41,38,34,92,90,87,30.04,29.95,4,0,4,1.07
2013-3-1,54,51,44,50,48,41,93,90,84,30.03,29.96,13,3,13,0.72
2013-3-2,54,48,42,50,45,37,91,89,81,29.99,29.75,9,2,9,0.39
2013-3-3,57,43,33,42,36,28,86,76,53,30.07,29.91,7,2,7,0.00
2013-3-4,59,41,29,43,33,26,92,74,46,30.08,29.73,4,0,4,0.01
2013-3-5,50,44,39,37,33,29,83,64,55,29.74,29.55,4,1,4,0.03
2013-3-6,46,43,40,41,39,36,89,85,80,29.64,29.38,4,0,4,0.16
2013-3-7,48,43,40,44,40,37,91,89,87,29.87,29.64,4,0,4,0.23
2013-3-8,58,43,34,45,38,29,93,83,59,30.00,29.85,5,0,5,0.00
2013-3-9,60,41,30,46,36,27,92,80,57,30.25,30.00,5,0,5,0.01
2013-3-10,47,43,37,43,39,34,89,86,81,30.25,30.18,4,0,4,0.01
2013-3-11,54,44,36,46,39,32,93,84,71,30.20,29.89,4,0,4,0.18
2013-3-12,51,48,42,49,45,39,93,90,87,29.89,29.71,12,2,12,0.77
2013-3-13,53,51,50,50,48,47,92,90,88,29.91,29.79,10,3,10,0.61
2013-3-14,55,50,48,50,47,45,93,89,80,29.87,29.75,10,1,10,0.32
2013-3-15,58,51,45,52,47,42,91,87,78,29.95,29.85,9,1,9,0.15
2013-3-16,50,46,41,46,41,34,93,85,63,29.87,29.57,9,2,9,0.32
2013-3-17,54,45,41,37,35,31,83,67,45,29.90,29.67,8,2,8,0.01
2013-3-18,54,44,34,39,35,28,87,72,49,30.00,29.79,10,2,10,0.13
2013-3-19,52,41,32,39,33,27,86,74,53,30.00,29.31,10,1,10,0.18
2013-3-20,54,46,41,47,40,31,90,77,63,29.69,29.04,17,5,17,0.27
2013-3-21,54,43,36,37,33,28,80,66,48,29.94,29.69,7,2,7,0.02
2013-3-22,55,42,32,36,31,25,79,65,40,30.14,29.93,7,2,7,0.00
2013-3-23,61,40,31,36,29,25,83,67,33,30.17,30.07,5,1,5,0.00
2013-3-24,66,45,33,40,32,25,78,62,33,30.08,29.90,5,1,5,0.00
2013-3-25,68,48,38,42,35,30,74,60,37,29.91,29.72,5,1,5,0.00
2013-3-26,64,46,34,44,36,28,84,69,46,29.79,29.73,1,0,1,0.00
2013-3-27,59,45,35,46,38,30,87,75,55,29.76,29.72,0,0,0,0.00
2013-3-28,68,50,38,47,41,34,87,72,43,29.90,29.76,0,0,0,0.00
2013-3-29,69,51,38,52,43,34,88,75,52,30.03,29.90,0,0,0,0.00
2013-3-30,67,49,36,52,41,32,91,76,56,30.05,29.85,0,0,0,0.00
2013-3-31,73,50,36,53,41,32,91,73,46,29.86,29.67,0,0,0,0.00
2013-4-1,72,50,39,53,43,35,89,76,49,29.88,29.72,0,0,0,0.00
2013-4-2,62,52,47,49,44,41,85,75,58,29.95,29.88,0,0,0,0.00
2013-4-3,62,52,46,50,45,40,87,77,62,29.95,29.74,0,0,0,0.00
2013-4-4,57,52,47,51,47,43,91,84,76,29.74,29.33,0,0,0,0.49
2013-4-5,62,53,48,53,48,44,89,82,68,29.58,29.40,0,0,0,0.30
2013-4-6,67,51,44,52,42,38,85,74,49,29.63,29.38,0,0,0,0.15
2013-4-7,52,46,42,45,41,38,89,83,74,29.61,29.31,0,0,0,0.26
2013-4-8,66,50,42,51,43,38,89,77,50,30.00,29.61,0,0,0,0.00
2013-4-9,55,48,42,46,43,38,87,83,70,30.10,29.90,0,0,0,0.02
2013-4-10,63,51,48,52,45,41,89,79,67,29.95,29.60,0,0,0,0.59
2013-4-11,69,51,40,42,39,32,79,65,38,30.05,29.94,0,0,0,0.01
2013-4-12,45,42,37,40,37,31,88,83,75,29.93,29.38,0,0,0,0.43
2013-4-13,59,45,37,49,38,32,86,75,56,29.73,29.43,0,0,0,0.10
2013-4-14,62,46,37,45,38,32,90,76,49,29.76,29.68,0,0,0,0.26
2013-4-15,71,49,41,50,40,35,87,73,39,29.93,29.69,0,0,0,0.20
2013-4-16,68,49,33,41,35,28,87,62,30,30.14,29.94,0,0,0,0.00
2013-4-17,63,49,37,42,37,30,79,64,45,30.19,30.14,0,0,0,0.00
2013-4-18,54,48,45,47,43,40,88,82,74,30.19,29.93,0,0,0,0.44
2013-4-19,64,52,48,53,48,45,90,85,67,29.93,29.81,0,0,0,0.40
2013-4-20,61,52,48,49,45,42,87,77,63,29.99,29.88,0,0,0,0.09
2013-4-21,73,51,44,47,41,36,84,71,32,30.15,29.97,0,0,0,0.14
2013-4-22,72,51,32,43,33,28,86,55,22,30.31,30.16,0,0,0,0.00
2013-4-23,74,50,36,47,37,29,81,64,34,30.19,30.03,0,0,0,0.00
2013-4-24,75,52,36,46,38,31,85,62,29,30.10,29.81,0,0,0,0.00
2013-4-25,78,55,40,51,43,34,83,65,37,29.88,29.80,0,0,0,0.00
2013-4-26,60,53,42,49,44,37,87,72,53,30.00,29.88,0,0,0,0.00
2013-4-27,61,52,49,52,45,42,84,78,68,29.93,29.86,0,0,0,0.17
2013-4-28,62,48,38,46,40,34,89,74,53,29.95,29.66,0,0,0,0.00
2013-4-29,59,49,44,42,36,32,84,63,42,29.87,29.64,0,0,0,0.01
2013-4-30,64,50,40,39,35,30,75,59,34,30.19,29.88,0,0,0,0.00
2013-5-1,72,49,34,42,36,29,83,62,32,30.36,30.20,0,0,0,0.00
2013-5-2,62,52,38,47,40,32,82,65,48,30.32,30.15,0,0,0,0.00
2013-5-3,81,56,39,50,43,34,86,64,33,30.18,30.00,0,0,0,0.00
2013-5-4,85,60,42,54,46,38,87,63,33,30.03,29.78,0,0,0,0.00
2013-5-5,83,62,46,58,48,41,83,63,38,29.78,29.53,0,0,0,0.00
2013-5-6,91,65,48,56,49,43,85,61,31,29.62,29.51,0,0,0,0.00
2013-5-7,87,64,48,60,50,42,83,63,39,29.73,29.55,0,0,0,0.00
2013-5-8,74,58,50,56,49,45,86,73,51,29.90,29.73,0,0,0,0.00
2013-5-9,78,58,45,57,49,40,88,72,46,29.98,29.87,0,0,0,0.04
2013-5-10,70,58,46,56,50,42,87,73,57,29.97,29.87,0,0,0,0.00
2013-5-11,73,60,51,58,51,46,86,73,51,29.92,29.74,0,0,0,0.00
2013-5-12,66,60,55,60,55,51,90,85,74,29.82,29.74,0,0,0,0.00
2013-5-13,72,56,50,60,51,43,91,82,60,29.91,29.64,10,1,10,0.00
2013-5-14,72,56,48,49,44,40,84,67,37,29.97,29.88,6,1,6,0.00
2013-5-15,69,57,49,53,47,43,83,70,48,29.88,29.75,6,1,6,0.00
2013-5-16,76,59,52,57,51,46,88,75,48,29.78,29.64,7,1,7,0.00
2013-5-17,62,56,48,54,50,44,89,82,73,29.79,29.67,8,1,8,0.00
2013-5-18,70,57,50,55,50,45,89,79,56,30.02,29.79,5,1,5,0.00
2013-5-19,74,58,50,53,48,43,88,73,43,30.16,30.02,19,2,19,0.00
2013-5-20,67,56,44,53,48,40,88,74,58,30.10,29.66,24,2,24,0.00
2013-5-21,60,52,49,52,46,45,87,82,69,29.67,29.55,9,1,9,0.00
2013-5-22,62,52,44,50,45,41,90,77,54,29.71,29.59,14,2,14,0.00
2013-5-23,72,53,42,57,46,39,91,76,54,29.76,29.67,23,2,23,0.00
2013-5-24,75,55,42,52,44,38,90,70,40,29.78,29.74,17,2,17,0.00
2013-5-25,76,58,48,52,47,42,86,69,41,29.79,29.74,13,1,13,0.00
2013-5-26,64,56,52,57,50,46,87,82,74,29.76,29.70,5,1,5,0.00
2013-5-27,64,57,50,56,52,47,90,85,73,29.70,29.46,5,1,5,0.00
2013-5-28,62,57,53,55,52,49,90,82,70,29.62,29.49,14,2,14,0.00
2013-5-29,62,54,51,55,50,47,91,86,73,29.69,29.43,10,1,10,0.00
2013-5-30,70,56,47,58,49,44,90,78,54,29.99,29.69,8,1,8,0.00
2013-5-31,75,58,50,53,48,43,89,70,40,30.10,29.99,8,1,8,0.00
2013-6-1,75,60,50,56,49,43,86,70,46,30.01,29.83,10,1,10,0.00
2013-6-2,77,60,52,56,50,45,84,71,44,29.84,29.79,17,2,17,0.00
2013-6-3,79,59,47,57,50,42,88,72,45,29.87,29.81,16,2,16,0.00
2013-6-4,80,61,46,58,50,42,88,71,45,29.90,29.78,13,2,13,0.00
2013-6-5,74,66,53,60,56,48,84,71,60,29.86,29.79,40,3,40,0.00
2013-6-6,85,64,50,61,53,46,89,69,43,29.81,29.73,9,1,9,0.00
2013-6-7,87,63,54,61,50,45,82,65,38,29.88,29.74,13,2,13,0.00
2013-6-8,71,59,50,53,48,44,83,68,49,29.92,29.85,10,2,10,0.00
2013-6-9,75,60,51,55,49,42,85,69,42,29.85,29.78,8,1,8,0.00
2013-6-10,76,58,43,53,46,38,86,67,40,29.79,29.62,10,1,10,0.00
2013-6-11,70,60,53,51,47,44,78,63,47,29.84,29.66,13,3,13,0.00
2013-6-12,83,60,51,57,49,44,85,70,38,29.90,29.84,18,2,18,0.00
2013-6-13,84,60,48,57,49,43,86,69,37,29.94,29.89,12,2,12,0.00
2013-6-14,77,60,53,57,50,45,82,70,48,29.98,29.84,15,2,15,0.00
2013-6-15,74,61,46,58,51,42,89,72,55,29.84,29.68,6,1,6,0.00
2013-6-16,76,64,52,57,53,48,87,69,49,29.82,29.73,7,1,7,0.00
2013-6-17,84,63,54,57,52,47,81,68,38,29.82,29.65,5,1,5,0.00
2013-6-18,81,64,56,56,52,48,85,67,35,29.72,29.65,4,1,4,0.00
2013-6-19,73,62,53,55,52,47,84,71,51,29.71,29.64,3,1,3,0.00
2013-6-20,58,56,54,54,52,50,89,86,79,29.84,29.65,3,0,3,0.00
2013-6-21,79,61,53,57,53,48,90,76,46,29.92,29.83,2,1,2,0.00
2013-6-22,92,66,51,60,53,47,87,67,34,29.88,29.63,3,1,3,0.00
2013-6-23,70,63,52,62,56,48,87,79,68,29.63,29.36,2,0,2,0.00
2013-6-24,72,64,59,60,58,54,90,82,66,29.44,29.30,5,1,5,0.00
2013-6-25,84,65,57,64,56,53,89,74,47,29.57,29.42,3,1,3,0.00
2013-6-26,78,65,58,61,56,52,86,73,56,29.82,29.58,3,1,3,0.00
2013-6-27,73,66,60,64,59,54,88,80,73,29.97,29.80,3,0,3,0.00
2013-6-28,76,68,58,66,61,54,90,77,69,29.97,29.81,4,1,4,0.00
2013-6-29,86,70,60,68,61,56,90,75,53,29.86,29.74,4,1,4,0.00
2013-6-30,94,73,58,70,62,54,89,72,43,29.77,29.61,5,1,5,0.00
2013-7-1,99,74,62,71,62,54,87,68,36,29.74,29.65,9,1,9,0.00
2013-7-2,98,72,59,66,57,50,78,61,35,29.84,29.74,6,1,6,0.00
2013-7-3,93,66,54,61,52,45,83,62,30,29.90,29.78,6,1,6,0.00
2013-7-4,87,65,54,59,52,46,82,64,38,29.85,29.77,7,1,7,0.00
2013-7-5,83,64,51,59,53,46,86,69,43,29.78,29.69,7,1,7,0.00
2013-7-6,82,66,52,62,55,47,86,70,49,29.74,29.61,6,1,6,0.00
2013-7-7,84,66,55,60,55,49,85,70,42,29.69,29.63,6,1,6,0.00
2013-7-8,85,66,54,62,56,49,87,71,44,29.84,29.68,6,1,6,0.00
2013-7-9,90,68,54,65,57,49,87,68,42,29.87,29.72,4,1,4,0.00
2013-7-10,88,67,55,60,53,45,83,63,30,29.79,29.67,7,1,7,0.00
2013-7-11,84,63,53,55,49,44,76,60,34,29.82,29.69,6,1,6,0.00
2013-7-12,83,61,49,55,49,42,83,66,37,29.84,29.76,6,1,6,0.00
2013-7-13,84,63,49,58,51,43,84,66,39,29.95,29.84,6,1,6,0.00
2013-7-14,82,65,48,59,52,44,87,66,38,29.88,29.76,5,1,5,0.00
2013-7-15,97,70,51,58,51,46,85,56,24,29.83,29.66,6,1,6,0.00
2013-7-16,92,72,53,61,53,46,82,54,29,29.68,29.56,5,1,5,0.00
2013-7-17,86,71,60,61,57,52,74,61,41,29.93,29.60,11,1,11,0.00
2013-7-18,87,68,58,62,56,50,79,65,42,29.98,29.87,4,1,5,0.00
2013-7-19,87,68,54,63,56,49,86,68,45,29.92,29.78,5,1,5,0.00
2013-7-20,90,66,55,64,55,49,86,69,39,29.82,29.70,6,1,6,0.00
2013-7-21,86,65,53,65,54,48,86,70,44,29.72,29.65,6,1,6,0.00
2013-7-22,84,66,54,61,55,49,86,71,44,29.80,29.68,6,1,6,0.00
2013-7-23,90,67,53,61,55,49,87,67,33,29.83,29.72,7,1,7,0.00
2013-7-24,88,67,53,63,55,47,83,66,42,29.81,29.74,5,1,5,0.00
2013-7-25,89,66,51,62,54,46,85,67,38,29.86,29.76,8,1,8,0.00
2013-7-26,84,66,52,60,54,47,85,66,40,29.90,29.82,6,1,6,0.00
2013-7-27,86,67,55,57,53,48,85,64,34,29.89,29.74,10,2,10,0.00
2013-7-28,90,65,50,62,53,45,86,68,35,29.75,29.67,13,2,13,0.00
2013-7-29,85,65,54,61,54,49,85,68,42,29.76,29.68,23,2,23,0.00
2013-7-30,79,65,54,61,55,49,85,70,50,29.87,29.74,12,2,12,0.00
2013-7-31,77,65,54,60,55,49,87,72,53,29.87,29.74,12,1,12,0.00
2013-8-1,78,65,54,61,56,50,87,74,52,29.79,29.74,12,2,12,0.00
2013-8-2,65,61,58,59,55,54,87,83,77,29.89,29.77,11,1,11,0.00
2013-8-3,82,66,59,61,57,52,89,75,48,29.89,29.81,17,2,17,0.00
2013-8-4,86,67,54,64,57,50,88,72,44,29.82,29.70,8,1,9,0.00
2013-8-5,89,68,53,64,56,48,87,69,41,29.77,29.67,11,1,11,0.00
2013-8-6,87,66,51,61,54,46,87,68,41,29.76,29.66,11,2,11,0.00
2013-8-7,97,69,54,62,55,48,85,64,31,29.75,29.68,12,2,12,0.00
2013-8-8,95,69,59,64,56,50,85,67,36,29.77,29.67,20,3,20,0.00
2013-8-9,85,67,53,62,55,47,84,66,44,29.71,29.56,10,2,10,0.00
2013-8-10,90,68,60,64,56,52,82,68,42,29.74,29.60,12,2,12,0.00
2013-8-11,75,65,58,61,55,51,86,70,54,29.82,29.73,14,2,14,0.00
2013-8-12,86,67,56,61,55,50,84,68,43,29.82,29.75,13,2,13,0.00
2013-8-13,86,67,54,60,54,49,85,66,40,29.85,29.69,13,2,13,0.00
2013-8-14,79,65,53,65,57,48,87,76,59,29.70,29.65,8,1,8,0.00
2013-8-15,70,65,60,64,61,56,89,86,79,29.74,29.66,7,1,7,0.00
2013-8-16,87,68,56,67,60,53,92,76,49,29.76,29.70,12,2,12,0.00
2013-8-17,90,70,61,64,59,53,84,70,42,29.81,29.72,20,2,20,0.00
2013-8-18,76,66,57,62,56,51,80,71,56,29.87,29.79,11,2,11,0.00
2013-8-19,90,66,52,63,54,47,86,69,40,29.87,29.79,11,1,11,0.00
2013-8-20,81,63,52,59,52,46,85,69,42,29.92,29.84,6,1,6,0.00
2013-8-21,86,64,47,62,52,42,86,68,42,29.86,29.69,6,1,6,0.00
2013-8-22,88,63,50,62,52,45,87,71,38,29.70,29.53,6,1,6,0.00
2013-8-23,82,67,58,60,55,50,84,68,46,29.62,29.53,11,1,11,0.00
2013-8-24,79,66,59,60,56,51,86,71,46,29.66,29.61,6,1,6,0.00
2013-8-25,74,63,51,57,53,47,86,70,51,29.69,29.59,5,1,5,0.00
2013-8-26,78,67,59,60,55,51,77,67,51,29.66,29.57,9,1,9,0.00
2013-8-27,84,68,60,64,58,54,85,71,48,29.68,29.53,8,1,8,0.00
2013-8-28,84,67,60,67,60,55,90,79,54,29.65,29.57,4,0,4,0.00
2013-8-29,78,67,62,67,62,59,90,84,67,29.70,29.60,12,1,12,0.00
2013-8-30,90,68,57,62,58,52,91,71,38,29.90,29.71,5,1,5,0.00
2013-8-31,88,66,52,63,55,48,89,71,41,29.85,29.58,6,1,6,0.00
2013-9-1,89,66,53,63,55,48,89,70,41,29.62,29.53,4,1,4,0.00
2013-9-2,88,66,57,64,57,52,88,75,43,29.68,29.59,4,1,4,0.00
2013-9-3,86,64,56,68,57,51,90,80,52,29.78,29.68,4,0,4,0.00
2013-9-4,74,62,55,64,57,51,90,83,71,29.81,29.75,5,1,5,0.00
2013-9-5,66,60,54,62,57,51,91,89,85,29.80,29.65,3,0,3,0.00
2013-9-6,77,64,58,68,60,55,92,87,70,29.83,29.64,4,0,4,0.00
2013-9-7,81,67,58,64,60,54,90,80,56,29.84,29.77,6,1,6,0.00
2013-9-8,78,63,54,65,57,51,91,81,61,29.86,29.76,4,1,4,0.00
2013-9-9,81,63,53,65,56,50,91,80,56,29.82,29.74,4,1,4,0.00
2013-9-10,89,64,51,67,56,48,91,77,48,29.76,29.65,4,1,5,0.00
2013-9-11,87,68,53,66,58,49,91,72,46,29.71,29.63,5,1,5,0.00
2013-9-12,84,66,54,63,56,50,90,73,47,29.73,29.63,4,0,4,0.00
2013-9-13,77,63,56,63,56,52,90,80,59,29.72,29.60,6,1,6,0.00
2013-9-14,71,61,57,62,57,54,90,86,70,29.64,29.50,4,1,4,0.00
2013-9-15,68,60,56,62,56,54,92,89,80,29.54,29.45,6,1,6,0.00
2013-9-16,76,63,58,64,58,52,92,85,65,29.65,29.51,9,1,9,0.00
2013-9-17,70,60,54,57,53,48,88,79,61,29.65,29.59,5,1,5,0.00
2013-9-18,78,59,50,57,51,46,91,75,45,29.82,29.65,4,1,6,0.00
2013-9-19,79,62,52,59,52,47,86,71,45,29.80,29.49,6,1,6,0.00
2013-9-20,72,59,49,57,50,45,87,73,49,29.49,29.32,5,1,5,0.00
2013-9-21,72,61,55,58,54,51,89,78,58,29.45,29.37,5,1,5,0.00
2013-9-22,67,58,56,56,52,50,89,83,70,29.42,29.24,11,2,11,0.00
2013-9-23,70,56,49,54,50,44,89,79,55,29.69,29.42,7,1,7,0.00
2013-9-24,66,54,47,55,48,43,89,79,58,29.69,29.58,4,0,4,0.00
2013-9-25,72,54,44,54,47,41,91,76,52,29.76,29.61,8,1,8,0.00
2013-9-26,69,52,41,53,45,38,90,77,53,29.86,29.76,4,1,4,0.00
2013-9-27,56,53,49,52,49,45,90,86,78,29.84,29.55,6,1,6,0.00
2013-9-28,59,54,52,56,51,46,92,88,76,29.55,29.01,12,2,12,0.00
2013-9-29,56,54,52,52,50,45,92,86,76,29.22,28.83,11,2,11,0.00
2013-9-30,59,52,49,51,47,43,89,82,71,29.61,29.03,8,2,8,0.00
2013-10-1,61,52,48,50,46,42,88,82,65,29.83,29.60,8,1,8,0.00
2013-10-2,53,49,44,50,46,41,91,90,88,29.94,29.81,5,0,5,0.00
2013-10-3,62,47,39,51,43,37,93,84,65,30.21,29.94,5,0,5,0.00
2013-10-4,61,48,38,52,44,35,92,84,69,30.24,30.10,4,0,4,0.00
2013-10-5,71,58,50,57,51,46,89,79,58,30.11,29.88,3,0,3,0.00
2013-10-6,76,57,44,58,49,40,92,76,49,29.88,29.54,5,0,5,0.00
2013-10-7,62,56,52,51,49,47,87,79,64,29.68,29.56,10,2,10,0.00
2013-10-8,70,53,42,51,45,37,89,75,48,29.85,29.67,8,1,8,0.00
2013-10-9,72,49,37,51,41,34,90,76,44,29.88,29.69,4,0,4,0.00
2013-10-10,59,50,40,50,44,35,87,81,67,29.82,29.67,5,0,5,0.00
2013-10-11,55,46,36,48,41,33,90,84,75,29.90,29.81,2,0,2,0.00
2013-10-12,64,50,41,52,44,37,90,81,62,29.97,29.82,5,0,5,0.00
2013-10-13,65,46,36,50,40,33,91,80,58,30.12,29.96,3,0,4,0.00
2013-10-14,64,45,34,52,40,31,91,82,64,30.19,30.12,5,1,5,0.00
2013-10-15,57,47,39,50,43,36,90,85,76,30.14,29.93,4,0,4,0.00
2013-10-16,70,52,44,55,46,39,91,82,56,29.95,29.89,5,0,5,0.00
2013-10-17,61,50,44,53,46,40,90,86,72,30.04,29.95,5,0,5,0.00
2013-10-18,53,47,42,49,44,40,92,90,86,30.01,29.91,3,0,3,0.00
2013-10-19,51,48,44,48,45,42,92,90,88,29.95,29.90,3,0,3,0.00
2013-10-20,51,49,47,48,46,45,91,90,87,29.97,29.93,2,0,2,0.00
2013-10-21,52,50,48,49,47,45,92,90,87,29.94,29.86,2,0,2,0.00
2013-10-22,53,48,45,50,46,43,93,91,88,29.89,29.78,2,0,2,0.00
2013-10-23,62,48,42,54,44,40,93,89,72,29.81,29.73,3,0,3,0.00
2013-10-24,53,45,38,50,42,36,92,90,83,29.85,29.77,4,0,4,0.00
2013-10-25,53,49,45,50,47,43,92,91,88,30.08,29.85,4,0,4,0.00
2013-10-26,60,51,43,51,47,40,91,86,69,30.09,29.92,3,0,3,0.00
2013-10-27,67,52,43,55,46,37,91,81,59,29.92,29.68,4,0,4,0.00
2013-10-28,72,52,42,38,33,27,80,51,26,29.79,29.67,6,1,6,0.00
2013-10-29,69,45,34,44,32,26,78,62,38,29.77,29.70,4,0,5,0.00
2013-10-30,57,45,36,45,39,30,84,77,63,29.86,29.77,8,0,8,0.00
2013-10-31,53,50,48,49,47,44,90,88,83,29.99,29.81,6,1,6,0.00
2013-11-1,56,52,50,51,49,47,90,87,82,30.00,29.54,3,0,4,0.00
2013-11-2,51,47,42,47,44,39,91,90,88,29.59,29.14,10,2,10,0.00
2013-11-3,62,40,32,46,36,29,93,84,54,29.86,29.59,4,0,4,0.00
2013-11-4,50,40,30,42,35,27,91,84,72,29.95,29.83,3,0,3,0.00
2013-11-5,45,42,40,42,39,37,90,88,84,30.01,29.78,3,0,3,0.00
2013-11-6,52,46,41,47,42,38,92,87,81,30.08,29.74,5,0,5,0.00
2013-11-7,53,48,44,48,44,41,91,88,82,29.76,29.40,9,2,9,0.00
2013-11-8,57,49,45,47,44,41,91,84,66,29.90,29.66,7,1,7,0.00
2013-11-9,51,46,40,46,42,37,90,86,79,29.90,29.84,3,0,3,0.00
2013-11-10,52,46,41,46,42,38,92,87,77,29.93,29.87,3,0,3,0.00
2013-11-11,60,51,46,46,41,39,85,70,56,29.92,29.75,6,1,6,0.00
2013-11-12,64,52,47,55,46,40,89,80,70,30.05,29.74,10,1,10,0.00
2013-11-13,57,52,45,50,47,41,90,83,74,30.15,30.04,6,1,6,0.00
2013-11-14,59,46,42,48,42,37,91,85,63,30.04,29.78,6,0,6,0.00
2013-11-15,47,45,43,45,41,39,91,87,79,29.78,28.99,9,3,12,0.00
2013-11-16,47,43,38,40,38,34,89,83,72,29.46,29.04,8,1,8,0.00
2013-11-17,56,45,34,48,40,31,92,84,68,29.61,29.46,10,2,10,0.00
2013-11-18,48,46,43,45,43,41,91,89,82,29.62,29.27,4,0,4,0.00
2013-11-19,52,42,32,42,31,17,91,67,34,29.84,29.30,8,2,8,0.00
2013-11-20,59,33,26,36,23,20,83,69,37,30.29,29.84,4,0,4,0.00
2013-11-21,55,31,24,36,24,18,84,74,47,30.44,30.28,4,0,4,0.00
2013-11-22,49,32,24,36,25,20,88,77,58,30.44,30.22,2,0,2,0.00
2013-11-23,56,36,27,43,30,23,88,79,54,30.23,29.96,2,0,2,0.00
2013-11-24,56,37,28,45,32,24,90,82,63,30.01,29.94,3,0,3,0.00
2013-11-25,58,40,31,46,34,28,90,82,64,30.06,30.01,4,0,4,0.00
2013-11-26,52,40,31,43,35,28,90,83,69,30.02,29.85,2,0,4,0.00
2013-11-27,54,44,36,44,37,31,86,78,63,29.85,29.72,3,0,3,0.00
2013-11-28,53,42,34,44,38,30,89,83,71,29.92,29.77,4,0,4,0.00
2013-11-29,48,46,45,45,43,41,90,88,87,30.05,29.92,5,0,5,0.00
2013-11-30,48,46,45,46,44,43,91,91,90,30.05,29.78,9,1,11,0.00
2013-12-1,52,49,43,48,44,35,91,85,71,29.78,29.43,11,4,11,0.00
2013-12-2,45,38,32,37,31,19,88,77,60,29.90,29.50,6,1,6,0.00
2013-12-3,55,34,30,31,18,15,61,53,37,30.10,29.90,8,1,8,0.00
2013-12-4,51,32,25,23,14,10,57,49,31,30.13,30.08,10,1,10,0.00
2013-12-5,38,28,24,20,14,9,59,54,47,30.10,29.97,6,1,6,0.00
2013-12-6,39,25,21,10,4,0,50,40,26,30.10,29.99,11,2,11,0.00
2013-12-7,49,23,17,15,3,-1,54,41,25,30.18,30.09,5,1,5,0.00
2013-12-8,48,25,16,23,11,2,66,56,35,30.32,30.17,3,0,3,0.00
2013-12-9,32,28,24,24,20,14,80,72,65,30.32,30.22,4,0,4,0.00
2013-12-10,35,32,30,30,28,24,86,84,79,30.24,30.18,2,0,2,0.00
2013-12-11,41,34,31,34,30,27,86,83,75,30.19,29.90,4,0,4,0.00
2013-12-12,38,35,32,36,32,28,90,87,83,29.90,29.75,3,0,3,0.00
2013-12-13,44,41,38,41,38,35,91,90,90,30.18,29.87,2,0,2,0.00
2013-12-14,48,45,40,44,42,38,92,89,86,30.18,30.03,9,1,9,0.00
2013-12-15,58,48,38,51,44,35,91,87,76,30.17,30.02,9,2,9,0.00
2013-12-16,50,39,32,46,36,29,93,89,85,30.23,30.01,3,0,3,0.00
2013-12-17,43,38,31,40,36,28,92,91,89,30.01,29.80,8,1,8,0.00
2013-12-18,52,40,32,40,34,24,91,78,56,30.00,29.78,4,1,6,0.00
2013-12-19,36,31,25,28,24,20,82,75,68,30.12,29.95,2,0,2,0.00
2013-12-20,35,33,32,32,30,27,90,88,82,29.95,29.46,3,0,3,0.00
2013-12-21,38,35,34,35,32,31,91,90,88,29.92,29.62,2,0,2,0.00
2013-12-22,39,37,35,36,34,33,92,91,91,30.04,29.91,3,0,3,0.00
2013-12-23,56,46,38,47,42,36,94,84,64,30.23,29.81,10,2,10,0.00
2013-12-24,51,39,32,44,35,29,91,86,73,30.35,30.23,3,0,3,0.00
2013-12-25,41,36,30,38,34,27,91,89,85,30.30,30.14,2,0,2,0.00
2013-12-26,60,42,33,50,38,30,91,87,66,30.15,29.95,3,0,3,0.00
2013-12-27,54,41,33,47,38,30,93,89,75,30.08,29.78,9,1,9,0.00
2013-12-28,46,42,39,42,39,36,91,89,86,30.27,30.08,3,0,3,0.00
2013-12-29,46,43,39,44,40,37,93,89,86,30.16,30.07,4,0,4,0.00
2013-12-30,47,42,40,43,40,37,91,90,87,30.07,29.84,2,0,2,0.00
2013-12-31,46,44,42,44,42,39,92,91,90,30.14,29.91,4,0,4,0.00
2014-1-1,49,44,41,46,41,39,93,91,88,30.17,30.00,2,0,2,0.00
2014-1-2,47,44,42,44,41,38,92,91,79,30.00,29.57,8,1,8,0.00